Location: Ashton River Estates
(39.1762°N, 77.0261°W)
Time: 20:39:57
(UTC+00:00)

CSL-04 Rocket - Pass Details

Date: 29 October 2020
Orbit: 805 x 861 km, 98.9° (Epoch: 03 December)

Event Time Altitude Azimuth Distance (km) Brightness Sun altitude
Exits shadow 23:39:12 10° 141° (SE) 2,476 5.8 -17.8°
Maximum altitude 23:44:24 46° 70° (ENE) 1,145 3.9 -18.8°
Drops below altitude 10° 23:49:38 10° 359° (N) 2,484 6.1 -19.8°
Sets 23:52:04 0° 354° (N) 3,416 6.9 -20.3°
